[[{"header":{"parameterUnit":"m.s-1","parameterCategory":1,"la1":30.2991,"la2":30.254,"lo1":-89.0895,"lo2":-89.0444,"dy":0.0017,"dx":0.0017,"nx":28,"ny":28,"refTime":"2023-09-03T03:00:00:Z","depth":0,"parameterNumber":2,"parameterNumberName":"U-component_of_WINDS"},"data":[0,0,0,0,0,0,0,0,0,0,0,0,0,0,0,0,0,0,0,0,0,0,0,0,0,0,0,0,0,0,0,0,0,0,0,0,0,0,0,0,0,0,0,0,0,0,0,0,0,0,0,0,0,0,0,0,0,0,-3.2753,-3.2754,0,-3.2795,-3.2795,-3.2796,-3.2717,-3.2715,-3.2712,-3.271,-3.2752,-3.2755,-3.2759,0,0,0,0,0,0,0,0,0,0,0,0,0,-3.2605,-3.2608,-3.2753,-3.2754,-3.2754,-3.2795,-3.2795,-3.2796,-3.2718,-3.2715,-3.2711,-3.2708,-3.2751,-3.2755,-3.2759,0,0,0,0,0,0,0,0,0,0,0,0,0,-3.266,-3.2609,-3.2753,-3.272,-3.2718,-3.2795,-3.2795,-3.2796,-3.2718,-3.2714,-3.2711,-3.2707,-3.2749,-3.2755,-3.276,-3.2871,0,0,-3.2776,-3.2778,0,0,0,0,0,0,0,0,-3.2657,-3.2666,-3.2724,-3.2723,-3.272,-3.2747,-3.2758,-3.2821,-3.2719,-3.2718,-3.271,-3.2705,-3.2753,-3.2758,-3.2775,-3.2873,-3.2875,-3.2777,-3.278,-3.2782,-3.2784,0,0,0,0,0,0,0,-3.2653,-3.2663,-3.277,-3.2725,-3.2723,-3.2703,-3.2706,-3.277,-3.2757,-3.2718,-3.2712,-3.2718,-3.2751,-3.277,-3.2775,-3.2875,-3.2776,-3.2781,-3.2784,-3.2787,-3.3066,-3.307,0,0,0,0,0,0,-3.2654,-3.2661,-3.2768,-3.2771,-3.2678,-3.2709,-3.2713,-3.2742,-3.2756,-3.2755,-3.2722,-3.2715,-3.2762,-3.2769,-3.2776,-3.2907,-3.2782,-3.2787,-3.279,-3.3062,-3.3067,-3.3071,0,0,0,0,0,0,-3.2651,-3.2664,-3.2767,-3.2714,-3.2726,-3.2715,-3.2749,-3.2745,-3.2763,-3.2759,-3.2756,-3.2743,-3.276,-3.2769,-3.2848,-3.2907,-3.2789,-3.2794,-3.3057,-3.3063,-3.3069,-3.317,0,0,0,0,0,0,-3.2647,-3.2663,-3.2706,-3.2716,-3.2729,-3.2838,-3.2753,-3.2749,-3.2773,-3.2764,-3.2778,-3.2777,-3.2757,-3.284,-3.2853,-3.2912,-3.2798,-3.3051,-3.306,-3.3067,-3.3161,-3.3178,-3.3194,0,0,0,0,0,-3.2642,-3.2733,-3.2709,-3.2722,-3.2782,-3.2842,-3.2849,-3.2825,-3.2778,-3.282,-3.2817,-3.2776,-3.2898,-3.2849,-3.2863,-3.2925,-3.3047,-3.3057,-3.3066,-3.3154,-3.3175,-3.3193,0,0,0,0,0,0,-3.273,-3.2733,-3.2707,-3.2804,-3.2823,-3.2829,-3.2881,-3.2849,-3.2882,-3.2872,-3.2841,-3.2845,-3.293,-3.2935,-3.288,-3.3032,-3.2965,-3.2978,-3.3026,-3.3047,-3.3063,-3.306,-3.2803,0,0,0,0,0,-3.2761,-3.281,-3.281,-3.2895,-3.2906,-3.2892,-3.2918,-3.2897,-3.2916,-3.2924,-3.2927,-3.2947,-3.2989,-3.3018,-3.3057,-3.3161,-3.3163,-3.321,-3.3226,-3.324,-3.3251,-3.3306,-3.3327,-3.3103,-3.3102,-3.3102,0,0,-3.2825,-3.2833,-3.2866,-3.2913,-3.2926,-3.2977,-3.29,-3.2957,-3.2994,-3.2932,-3.3007,-3.301,-3.303,-3.3122,-3.3162,-3.3129,-3.3314,-3.3252,-3.3263,-3.3267,-3.3318,-3.3339,-3.3358,-3.3109,-3.3108,-3.3107,0,0,-3.2968,-3.2979,-3.3051,-3.3065,-3.3085,-3.3075,-3.3093,-3.3103,-3.3102,-3.3177,-3.3132,-3.3175,-3.3249,-3.3265,-3.3283,-3.3431,-3.3394,-3.3444,-3.353,-3.3584,-3.3602,-3.3617,-3.367,-3.369,-3.3456,-3.3456,-3.3456,0,-3.3046,-3.3121,-3.3092,-3.3153,-3.3175,-3.312,-3.3193,-3.3208,-3.324,-3.3256,-3.3218,-3.3309,-3.3319,-3.3414,-3.345,-3.3466,-3.3484,-3.3443,-3.3602,-3.3617,-3.3631,-3.3681,-3.3701,-3.3462,-3.3461,-3.3461,-3.346,0,-3.3215,-3.3267,-3.3323,-3.3355,-3.3383,-3.3449,-3.3431,-3.3462,-3.3439,-3.3433,-3.3509,-3.3519,-3.3558,-3.3579,-3.3557,-3.3671,-3.3649,-3.3607,-3.3538,-3.3659,-3.3705,-3.3724,-3.3471,-3.3468,-3.3467,-3.3465,0,0,-3.3416,-3.3431,-3.3452,-3.3465,-3.3483,-3.3523,-3.3586,-3.3625,-3.3653,-3.3676,-3.3728,-3.3792,-3.3752,-3.3773,-3.3752,-3.3799,-3.3915,-3.375,-3.375,-3.3781,-3.4041,-3.4073,-3.4096,-3.3891,-3.3894,-3.3897,-3.4039,0,-3.3558,-3.3667,-3.3643,-3.3751,-3.3799,-3.3747,-3.3802,-3.3819,-3.3815,-3.3854,-3.3849,-3.3895,-3.3839,-3.3851,-3.3895,-3.3892,-3.3967,-3.3881,-3.3939,-3.3942,-3.3937,-3.412,-3.4155,-3.4289,-3.4057,-3.406,-3.4063,0,-3.3739,-3.3769,-3.3881,-3.389,-3.391,-3.396,-3.3993,-3.4032,-3.4049,-3.4042,-3.4065,-3.4034,-3.4096,-3.4027,-3.4112,-3.4054,-3.4076,-3.4078,-3.4082,-3.4087,-3.401,-3.4131,-3.4331,-3.4351,-3.4091,-3.4089,-3.4087,0,-3.3875,-3.3943,-3.4019,-3.4032,-3.4045,-3.4081,-3.4088,-3.4101,-3.4126,-3.4155,-3.417,-3.4206,-3.4226,-3.4254,-3.4234,-3.4185,-3.4323,-3.4251,-3.4319,-3.432,-3.4351,-3.4349,-3.4558,-3.4364,-3.4364,-3.4364,-3.4363,0,-3.4036,-3.4107,-3.408,-3.4127,-3.4205,-3.4176,-3.4253,-3.4254,-3.4266,-3.4312,-3.4269,-3.4313,-3.4283,-3.4325,-3.4309,-3.4382,-3.4391,-3.4387,-3.4382,-3.4392,-3.4392,-3.4406,-3.4396,-3.4369,-3.4368,-3.4367,-3.4366,0,-3.4202,-3.4187,-3.4266,-3.4271,-3.4274,-3.4331,-3.4335,-3.4378,-3.437,-3.4428,-3.444,-3.4428,-3.4474,-3.4456,-3.4506,-3.4495,-3.4588,-3.4571,-3.4583,-3.4578,-3.4647,-3.4641,-3.4872,-3.4901,-3.4689,-3.4691,-3.4693,0,-3.4307,-3.436,-3.437,-3.4398,-3.4408,-3.4453,-3.4477,-3.445,-3.4478,-3.4501,-3.4541,-3.4584,-3.4616,-3.4692,-3.4688,-3.4725,-3.4708,-3.4787,-3.4714,-3.4721,-3.471,-3.4707,-3.4712,-3.4802,-3.4804,-3.4806,-3.4808,0,-3.4494,-3.4483,-3.4521,-3.4556,-3.4586,-3.4613,-3.4635,-3.466,-3.4634,-3.4667,-3.4713,-3.4738,-3.4788,-3.4831,-3.4864,-3.487,-3.4835,-3.4831,-3.4848,-3.4859,-3.4863,-3.4862,-3.4623,-3.4826,-3.4824,-3.4823,-3.4822,-3.4821,-3.4632,-3.4677,-3.4691,-3.4734,-3.4748,-3.4769,-3.481,-3.4807,-3.4845,-3.4884,-3.4865,-3.4919,-3.4934,-3.4975,-3.4986,-3.5028,-3.4997,-3.5023,-3.5029,-3.5036,-3.5045,-3.4856,-3.5033,-3.5033,-3.5032,-3.5032,-3.5032,0,-3.4817,-3.4824,-3.4863,-3.4896,-3.4929,-3.4892,-3.4915,-3.4946,-3.4994,-3.501,-3.5043,-3.5096,-3.5137,-3.5135,-3.5173,-3.5207,-3.5191,-3.5218,-3.5215,-3.5217,-3.507,-3.5051,-3.5229,-3.5229,-3.5229,-3.5229,-3.5229,-3.5229,-3.4918,-3.4991,-3.4983,-3.5062,-3.5068,-3.512,-3.5136,-3.5156,-3.5169,-3.523,-3.5264,-3.5262,-3.5271,-3.5309,-3.5345,-3.5343,-3.5359,-3.5392,-3.5384,-3.5247,-3.5227,-3.5209,-3.5191,-3.5395,-3.5395,-3.5527,-3.5528,-3.5529]},{"header":{"parameterUnit":"m.s-1","parameterCategory":1,"la1":30.2991,"la2":30.254,"lo1":-89.0895,"lo2":-89.0444,"dy":0.0017,"dx":0.0017,"nx":28,"ny":28,"refTime":"2023-09-03T03:00:00:Z","depth":0,"parameterNumber":3,"parameterNumberName":"V-component_of_WINDS"},"data":[0,0,0,0,0,0,0,0,0,0,0,0,0,0,0,0,0,0,0,0,0,0,0,0,0,0,0,0,0,0,0,0,0,0,0,0,0,0,0,0,0,0,0,0,0,0,0,0,0,0,0,0,0,0,0,0,0,0,-2.327,-2.327,0,-2.3298,-2.3299,-2.3299,-2.3288,-2.3287,-2.3286,-2.3286,-2.3315,-2.3316,-2.3317,0,0,0,0,0,0,0,0,0,0,0,0,0,-2.3203,-2.3205,-2.327,-2.327,-2.327,-2.3298,-2.3299,-2.3299,-2.3288,-2.3287,-2.3286,-2.3285,-2.3314,-2.3316,-2.3317,0,0,0,0,0,0,0,0,0,0,0,0,0,-2.3232,-2.3205,-2.3269,-2.3268,-2.3268,-2.3298,-2.3299,-2.3299,-2.3288,-2.3287,-2.3286,-2.3285,-2.3314,-2.3316,-2.3318,-2.3351,0,0,-2.3324,-2.3325,0,0,0,0,0,0,0,0,-2.323,-2.3234,-2.3268,-2.3268,-2.3268,-2.3288,-2.3286,-2.3316,-2.3288,-2.328,-2.3286,-2.3284,-2.3307,-2.3309,-2.3317,-2.3352,-2.3353,-2.3324,-2.3326,-2.3326,-2.3327,0,0,0,0,0,0,0,-2.3228,-2.3233,-2.3281,-2.3268,-2.3269,-2.3265,-2.3268,-2.3292,-2.3299,-2.3281,-2.328,-2.3284,-2.3307,-2.3315,-2.3317,-2.3354,-2.3324,-2.3326,-2.3327,-2.3328,-2.3416,-2.3417,0,0,0,0,0,0,-2.3227,-2.3232,-2.328,-2.3282,-2.3247,-2.3267,-2.3271,-2.3283,-2.3298,-2.33,-2.3285,-2.3283,-2.3312,-2.3315,-2.3318,-2.3357,-2.3326,-2.3328,-2.333,-2.3415,-2.3416,-2.3417,0,0,0,0,0,0,-2.3225,-2.3231,-2.3279,-2.3256,-2.3262,-2.327,-2.3283,-2.3284,-2.3292,-2.3301,-2.3302,-2.3292,-2.3311,-2.3315,-2.3342,-2.3358,-2.3329,-2.3331,-2.3413,-2.3415,-2.3416,-2.3434,0,0,0,0,0,0,-2.3223,-2.3231,-2.3244,-2.3257,-2.3264,-2.3303,-2.3284,-2.3285,-2.3296,-2.3294,-2.3308,-2.331,-2.3311,-2.3339,-2.3344,-2.336,-2.3333,-2.3412,-2.3414,-2.3416,-2.3432,-2.3436,-2.344,0,0,0,0,0,-2.3221,-2.3248,-2.3244,-2.325,-2.328,-2.3304,-2.3307,-2.3308,-2.3297,-2.331,-2.3315,-2.3309,-2.3355,-2.3342,-2.3348,-2.3364,-2.3411,-2.3413,-2.3416,-2.3431,-2.3436,-2.344,0,0,0,0,0,0,-2.3236,-2.325,-2.3246,-2.3278,-2.329,-2.3302,-2.3318,-2.3314,-2.3329,-2.3326,-2.3327,-2.333,-2.3357,-2.3364,-2.3349,-2.3396,-2.3381,-2.3385,-2.3391,-2.3395,-2.3399,-2.3396,-2.3335,0,0,0,0,0,-2.3243,-2.3262,-2.3272,-2.33,-2.3306,-2.3311,-2.3321,-2.3321,-2.3333,-2.3338,-2.3345,-2.3357,-2.3374,-2.3385,-2.3402,-2.3434,-2.3436,-2.3447,-2.3451,-2.3454,-2.3457,-2.3473,-2.3478,-2.3425,-2.3425,-2.3425,0,0,-2.3258,-2.3268,-2.3279,-2.3303,-2.3312,-2.333,-2.3315,-2.3336,-2.3349,-2.3341,-2.3366,-2.3372,-2.3385,-2.3414,-2.3428,-2.3421,-2.3472,-2.3457,-2.3459,-2.3461,-2.3476,-2.3481,-2.3485,-2.3427,-2.3426,-2.3426,0,0,-2.3294,-2.3304,-2.3327,-2.3336,-2.335,-2.3353,-2.3358,-2.3371,-2.3374,-2.34,-2.3394,-2.341,-2.344,-2.3449,-2.3457,-2.3495,-2.3489,-2.3501,-2.3519,-2.3535,-2.3539,-2.3542,-2.3555,-2.3559,-2.3504,-2.3504,-2.3504,0,-2.3311,-2.3339,-2.3339,-2.336,-2.3369,-2.3363,-2.3385,-2.3394,-2.3413,-2.3419,-2.3411,-2.3447,-2.3456,-2.3486,-2.3495,-2.3503,-2.3508,-2.3499,-2.3538,-2.3542,-2.3545,-2.3557,-2.3562,-2.3505,-2.3505,-2.3505,-2.3505,0,-2.3357,-2.3377,-2.3393,-2.3411,-2.3423,-2.3444,-2.3447,-2.3459,-2.3457,-2.3461,-2.3486,-2.3496,-2.3514,-2.3521,-2.352,-2.3551,-2.3546,-2.3538,-2.3523,-2.3551,-2.3562,-2.3567,-2.3507,-2.3506,-2.3506,-2.3506,0,0,-2.3404,-2.3421,-2.3427,-2.3434,-2.3448,-2.3463,-2.3483,-2.35,-2.351,-2.3523,-2.3539,-2.3564,-2.3556,-2.3566,-2.3566,-2.3579,-2.3607,-2.357,-2.357,-2.3575,-2.364,-2.3645,-2.365,-2.3604,-2.3604,-2.3605,-2.3638,0,-2.344,-2.3476,-2.3476,-2.3509,-2.3526,-2.352,-2.3538,-2.3548,-2.3552,-2.3566,-2.3571,-2.3587,-2.3577,-2.3583,-2.3596,-2.3601,-2.362,-2.3599,-2.3618,-2.3619,-2.3613,-2.3656,-2.3661,-2.3692,-2.3643,-2.3643,-2.3644,0,-2.3487,-2.35,-2.3535,-2.3545,-2.3552,-2.3568,-2.3583,-2.3597,-2.3608,-2.361,-2.362,-2.3618,-2.3638,-2.3623,-2.365,-2.3636,-2.3644,-2.3647,-2.3648,-2.3649,-2.3632,-2.3656,-2.3702,-2.3706,-2.3651,-2.365,-2.365,0,-2.3515,-2.3542,-2.3566,-2.3572,-2.3586,-2.3597,-2.3603,-2.3613,-2.3622,-2.3635,-2.3641,-2.3657,-2.3665,-2.3676,-2.3677,-2.3667,-2.3704,-2.369,-2.3705,-2.3705,-2.3713,-2.3712,-2.3759,-2.372,-2.372,-2.372,-2.372,0,-2.3554,-2.3575,-2.3578,-2.3593,-2.3616,-2.3616,-2.3638,-2.3644,-2.3652,-2.3667,-2.3663,-2.3677,-2.3678,-2.3692,-2.3694,-2.3715,-2.3719,-2.372,-2.372,-2.372,-2.3719,-2.3724,-2.3722,-2.3721,-2.3721,-2.3721,-2.372,0,-2.3589,-2.3593,-2.3618,-2.3628,-2.3631,-2.3647,-2.3656,-2.3669,-2.3672,-2.3691,-2.3695,-2.37,-2.3716,-2.3719,-2.3738,-2.3739,-2.3764,-2.3763,-2.376,-2.376,-2.3774,-2.3772,-2.3825,-2.3831,-2.379,-2.379,-2.379,0,-2.3613,-2.3629,-2.3641,-2.365,-2.3657,-2.3672,-2.3682,-2.3683,-2.3693,-2.3706,-2.3717,-2.3733,-2.3746,-2.3772,-2.3777,-2.3791,-2.3789,-2.3807,-2.3791,-2.379,-2.3788,-2.3786,-2.3787,-2.3809,-2.381,-2.381,-2.381,0,-2.3655,-2.3656,-2.367,-2.3684,-2.3696,-2.3707,-2.3718,-2.3726,-2.3727,-2.3739,-2.3755,-2.3765,-2.3784,-2.3799,-2.3813,-2.3819,-2.3815,-2.3815,-2.3819,-2.3819,-2.3816,-2.3816,-2.3767,-2.3814,-2.3813,-2.3813,-2.3813,-2.3813,-2.3685,-2.3698,-2.3708,-2.3723,-2.3731,-2.3741,-2.3753,-2.3758,-2.3772,-2.3787,-2.3787,-2.3804,-2.3814,-2.3832,-2.3839,-2.3852,-2.3847,-2.3853,-2.3854,-2.3856,-2.3856,-2.3815,-2.3855,-2.3855,-2.3855,-2.3855,-2.3855,0,-2.3725,-2.3731,-2.3745,-2.376,-2.3771,-2.3767,-2.3778,-2.3788,-2.3803,-2.3813,-2.3825,-2.3843,-2.3858,-2.3864,-2.3878,-2.3887,-2.3885,-2.3891,-2.389,-2.3891,-2.3861,-2.3856,-2.3892,-2.3892,-2.3892,-2.3892,-2.3892,-2.3892,-2.3747,-2.3769,-2.377,-2.3795,-2.3801,-2.3818,-2.3825,-2.3833,-2.3841,-2.3861,-2.3873,-2.3877,-2.3884,-2.3899,-2.3912,-2.3913,-2.3918,-2.3924,-2.3924,-2.3897,-2.3893,-2.3889,-2.3884,-2.3925,-2.3925,-2.3952,-2.3953,-2.3953]}]]